Regional Weather Roundup
Issued by NWS

Home | Current Version | Previous Version | Graphics & Text | Print | Product List | Glossary On
Versions: 1 2 3 4 5 6 7 8 9 10 11 12 13 14 15 16 17 18 19 20 21 22 23 24 25 26 27 28 29 30 31 32 33 34 35 36 37 38 39 40 41 42 43 44 45 46 47 48 49 50
000
ASUS43 KLOT 210400
RWRIL

ILLINOIS REGIONAL WEATHER ROUNDUP
NATIONAL WEATHER SERVICE CHICAGO/ROMEOVILLE IL
1000 PM CST SAT DEC 20 2014

NOTE: "FAIR" INDICATES FEW OR NO CLOUDS BELOW 12,000 FEET WITH NO
SIGNIFICANT WEATHER AND/OR OBSTRUCTIONS TO VISIBILITY.

* THESE STATIONS ARE NOT UNDER NWS QUALITY CONTROL. THEY ALSO MAY NOT
  REPORT WEATHER SUCH AS PRECIPITATION OR FOG.

ILZ001-002-007-009-015-016-024-210500-
NORTHWEST ILLINOIS

CITY           SKY/WX    TMP DP  RH WIND       PRES   REMARKS
MOLINE         CLOUDY    33  29  85 S8        30.20S FOG     WCI  26
STERLING*      CLOUDY    32  27  80 S3        30.22S
$$

ILZ003-004-008-010-011-017-018-210500-
NORTH CENTRAL ILLINOIS

CITY           SKY/WX    TMP DP  RH WIND       PRES   REMARKS
ROCKFORD       CLOUDY    31  26  82 S7        30.24F WCI  24
FREEPORT*      CLOUDY    31  28  88 SE6       30.22F WCI  25
DE KALB*       CLOUDY    29  27  90 S8        30.23F WCI  21
$$

ILZ005-006-012>014-019>023-210500-
NORTHEAST ILLINOIS

CITY           SKY/WX    TMP DP  RH WIND       PRES   REMARKS
CHICAGO-OHARE  CLOUDY    32  26  78 S7        30.24F WCI  26
CHICAGO-MIDWAY CLOUDY    34  27  75 S6        30.26F WCI  29
AURORA         CLOUDY    32  26  78 S6        30.24F HAZE    WCI  26
WAUKEGAN       CLOUDY    31  25  78 S5        30.24S WCI  26
DUPAGE AIRPORT CLOUDY    32  26  78 S7        30.24S WCI  26
WHEELING       CLOUDY    32  26  78 S9        30.26F WCI  24
NORTHERLY ISL    N/A     33  26  76 S7          N/A  WCI  27
$$

LMZ740>746-210500-
SOUTHERN LAKE MICHIGAN

STATION/POSITION SKY/WX   TEMP    WIND        PRES    VSBY  WAVE
                          AIR SEA DIR/SP/G                  HT/PER
                          (F)     (DEG/KT/KT) (MB)    (MI)  (FT/S)
WAUKEGAN HARBOR            33     200/  5/  8   N/A
HARRISON CRIB              33     190/ 13/ 14   N/A
BURNHAM HARBOR             33     200/  7/ 10   N/A
CALUMET HARBOR             33     170/  5/  8 1023.5F
$$

ILZ025>027-034>036-040-047-049-050-058-095>099-210500-
WEST-CENTRAL ILLINOIS

CITY           SKY/WX    TMP DP  RH WIND       PRES   REMARKS
QUINCY         CLOUDY    38  33  82 S10       30.20S WCI  31
$$

ILZ028>032-037-038-041>044-048-051>054-059>061-210500-
CENTRAL ILLINOIS

CITY           SKY/WX    TMP DP  RH WIND       PRES   REMARKS
DECATUR        CLOUDY    33  28  81 S6        30.26F WCI  28
PEORIA         CLOUDY    36  28  73 S8        30.24S WCI  30
LINCOLN*       CLOUDY    35  31  87 S5        30.26S WCI  31
SPRINGFIELD    CLOUDY    38  31  76 SE12      30.24F WCI  30
TAYLORVILLE    NOT AVBL
$$

ILZ033-039-045-046-055>057-062-063-210500-
EAST-CENTRAL ILLINOIS

CITY           SKY/WX    TMP DP  RH WIND       PRES   REMARKS
CHAMPAIGN      CLOUDY    32  27  81 SE8       30.27R WCI  25
DANVILLE*      CLEAR     30  26  84 SE5       30.25S WCI  25
MATTOON        CLOUDY    31  26  82 S8        30.27S WCI  23
$$

ILZ079-100>102-210500-
SOUTHWEST ILLINOIS

CITY           SKY/WX    TMP DP  RH WIND       PRES   REMARKS
ALTON          CLOUDY    37  32  81 SE7       30.25S WCI  32
CAHOKIA*       CLOUDY    40  34  79 SE7       30.25S
$$

ILZ064>066-069>071-074>076-080>082-084>086-088>090-092>094-210500-
SOUTH-CENTRAL ILLINOIS

CITY           SKY/WX    TMP DP  RH WIND       PRES   REMARKS
CARBONDALE     CLOUDY    36  29  75 CALM      30.28F
MT. VERNON     CLOUDY    36  27  69 E5        30.29S WCI  32
$$

ILZ067-068-072-073-078-083-087-091-210500-
SOUTHEAST ILLINOIS

CITY           SKY/WX    TMP DP  RH WIND       PRES   REMARKS
LAWRENCEVILLE  CLEAR     26  24  92 CALM      30.31S FOG
$$

ABBREVIATIONS USED IN REMARKS
   TC - TEMPERATURE IN CELSIUS
  WCI - WIND CHILL INDEX
   HX - HEAT INDEX
  VSB - VISIBILITY
$$



USA.gov is the U.S. government's official web portal to all federal, state and local government web resources and services.